Location: Dompnac
(44.5644°N, 4.1026°E)
Time: 02:08:13
(UTC+00:00)

USA 234 - Pass Details

Date: 22 January 2021
Orbit: 1100 x 1107 km, 123.0° (Epoch: 01 March)

Event Time Altitude Azimuth Distance (km) Brightness Sun altitude
Exits shadow 20:45:55 28° 311° (NW) 1,932 4.8 -43.5°
Drops below altitude 10° 20:48:43 10° 310° (NW) 2,965 6.0 -44.0°
Sets 20:51:12 0° 310° (NW) 3,926 6.8 -44.4°
